NJE409 BIRK-LFPB

Flight info

Callsign NJE409
Flight time N/A
Altitude 45000
Route METIL DCT 60N015W DCT GOMUP/N0422F450 DCT DONIB DCT SOSIM L15 HON UL612 WOD UM605 PETAX UZ296 VELOL
Aircraft C68A/M-SDFGHRWY/SB1

Departure

Time 2026-04-29 17:29
Airport Reykjavík Domestic Airport (BIRK)

Arrival

Time N/A
Airport Paris-Le Bourget International Airport (LFPB)
Time Latitude Longitude Altitude Speed Heading
2026-04-29 17:13 64.13086 -21.93447 42 ft 0 kts
2026-04-29 17:27 64.13111 -21.93501 42 ft 9 kts 300°
2026-04-29 17:27 64.13170 -21.93561 44 ft 12 kts 355°
2026-04-29 17:27 64.13282 -21.93581 40 ft 20 kts 355°
2026-04-29 17:28 64.13429 -21.93609 34 ft 22 kts 355°
2026-04-29 17:28 64.13558 -21.93646 30 ft 16 kts 334°
2026-04-29 17:28 64.13623 -21.93826 28 ft 12 kts 290°
2026-04-29 17:28 64.13593 -21.93887 30 ft 7 kts 179°
2026-04-29 17:29 64.13361 -21.93843 38 ft 77 kts 176°
2026-04-29 17:29 64.12515 -21.93671 168 ft 160 kts 178°
2026-04-29 17:29 64.11234 -21.93460 1002 ft 200 kts 179°
2026-04-29 17:29 64.10301 -21.93237 2058 ft 207 kts 175°
2026-04-29 17:30 64.08535 -21.91263 4173 ft 234 kts 139°
2026-04-29 17:30 64.07703 -21.87920 5826 ft 247 kts 123°
2026-04-29 17:30 64.07037 -21.84260 7423 ft 251 kts 122°
2026-04-29 17:30 64.06326 -21.80640 9026 ft 244 kts 134°
2026-04-29 17:31 64.05253 -21.77811 10573 ft 232 kts 146°
2026-04-29 17:31 64.04159 -21.74976 11906 ft 246 kts 139°
2026-04-29 17:31 64.03180 -21.71679 13176 ft 255 kts 137°
2026-04-29 17:31 64.02158 -21.68335 14365 ft 259 kts 140°
2026-04-29 17:32 64.01089 -21.64969 15497 ft 264 kts 140°
2026-04-29 17:32 64.00000 -21.61538 16605 ft 270 kts 140°
2026-04-29 17:32 63.98895 -21.58013 17683 ft 276 kts 141°
2026-04-29 17:32 63.97764 -21.54442 18673 ft 279 kts 142°
2026-04-29 17:33 63.96478 -21.51246 19587 ft 270 kts 153°
2026-04-29 17:33 63.95058 -21.48474 20500 ft 270 kts 155°
2026-04-29 17:33 63.93621 -21.45664 21394 ft 274 kts 155°
2026-04-29 17:33 63.92165 -21.42823 22295 ft 277 kts 155°
2026-04-29 17:34 63.90687 -21.39961 23197 ft 281 kts 156°
2026-04-29 17:34 63.89192 -21.37070 23982 ft 284 kts 156°
2026-04-29 17:34 63.87680 -21.34141 24712 ft 287 kts 156°
2026-04-29 17:34 63.86175 -21.31229 25413 ft 290 kts 156°
2026-04-29 17:35 63.83581 -21.26226 26597 ft 294 kts 156°
2026-04-29 17:35 63.81499 -21.22224 27507 ft 298 kts 156°
2026-04-29 17:35 63.79907 -21.19165 28181 ft 301 kts 156°
2026-04-29 17:36 63.78302 -21.16086 28863 ft 304 kts 156°
2026-04-29 17:36 63.76678 -21.12978 29503 ft 307 kts 156°
2026-04-29 17:36 63.75038 -21.09843 30112 ft 311 kts 155°
2026-04-29 17:36 63.73378 -21.06676 30605 ft 314 kts 155°
2026-04-29 17:37 63.71695 -21.03470 31099 ft 318 kts 155°
2026-04-29 17:37 63.69988 -21.00221 31570 ft 322 kts 155°
2026-04-29 17:37 63.68284 -20.96985 32043 ft 326 kts 155°
2026-04-29 17:37 63.66539 -20.93676 32493 ft 330 kts 155°
2026-04-29 17:38 63.64774 -20.90332 32960 ft 333 kts 155°
2026-04-29 17:38 63.62988 -20.86957 33407 ft 337 kts 155°
2026-04-29 17:38 63.61181 -20.83547 33844 ft 341 kts 155°
2026-04-29 17:38 63.59357 -20.80112 34223 ft 344 kts 154°
2026-04-29 17:39 63.57508 -20.76636 34575 ft 348 kts 154°
2026-04-29 17:39 63.55640 -20.73130 34908 ft 352 kts 154°
2026-04-29 17:39 63.53754 -20.69595 35240 ft 355 kts 153°
2026-04-29 17:39 63.51847 -20.66028 35567 ft 359 kts 153°
2026-04-29 17:40 63.49918 -20.62427 35888 ft 363 kts 153°
2026-04-29 17:40 63.47993 -20.58838 36199 ft 366 kts 152°
2026-04-29 17:40 63.46020 -20.55170 36504 ft 370 kts 152°
2026-04-29 17:40 63.44032 -20.51479 36804 ft 373 kts 152°
2026-04-29 17:41 63.42022 -20.47753 37099 ft 377 kts 152°
2026-04-29 17:41 63.39995 -20.44004 37389 ft 380 kts 151°
2026-04-29 17:41 63.37951 -20.40231 37679 ft 383 kts 151°
2026-04-29 17:41 63.35889 -20.36430 37950 ft 386 kts 150°
2026-04-29 17:42 63.33806 -20.32600 38236 ft 389 kts 150°
2026-04-29 17:42 63.31708 -20.28750 38522 ft 392 kts 150°
2026-04-29 17:42 63.29593 -20.24875 38757 ft 395 kts 150°
2026-04-29 17:42 63.27462 -20.20979 38968 ft 398 kts 150°
2026-04-29 17:43 63.25317 -20.17066 39180 ft 401 kts 149°
2026-04-29 17:43 63.23156 -20.13129 39389 ft 403 kts 149°
2026-04-29 17:43 63.21004 -20.09218 39591 ft 406 kts 149°
2026-04-29 17:43 63.18814 -20.05246 39793 ft 408 kts 149°
2026-04-29 17:44 63.16606 -20.01251 39980 ft 411 kts 149°
2026-04-29 17:44 63.14386 -19.97239 40179 ft 413 kts 149°
2026-04-29 17:44 63.12148 -19.93206 40372 ft 416 kts 149°
2026-04-29 17:44 63.09893 -19.89150 40560 ft 418 kts 149°
2026-04-29 17:45 63.07629 -19.85084 40742 ft 421 kts 148°
2026-04-29 17:45 63.05351 -19.81003 40921 ft 423 kts 148°
2026-04-29 17:45 63.03076 -19.76937 41014 ft 428 kts 148°
2026-04-29 17:46 62.98415 -19.68627 41021 ft 431 kts 148°
2026-04-29 17:46 62.93788 -19.60409 41017 ft 424 kts 149°
2026-04-29 17:47 62.89200 -19.52311 41018 ft 423 kts 149°
2026-04-29 17:47 62.84595 -19.44203 41021 ft 426 kts 149°
2026-04-29 17:48 62.79953 -19.36070 41031 ft 428 kts 149°
2026-04-29 17:48 62.75327 -19.27993 41030 ft 427 kts 149°
2026-04-29 17:49 62.70691 -19.19935 41036 ft 425 kts 149°
2026-04-29 17:49 62.66066 -19.11929 41035 ft 423 kts 149°
2026-04-29 17:50 62.61458 -19.03989 41039 ft 423 kts 149°
2026-04-29 17:50 62.56789 -18.95981 41043 ft 433 kts 149°
2026-04-29 17:51 62.52018 -18.87812 41052 ft 438 kts 149°
2026-04-29 17:51 62.47260 -18.79708 41049 ft 433 kts 149°
2026-04-29 17:52 62.42534 -18.71698 41051 ft 430 kts 149°
2026-04-29 17:52 62.37815 -18.63734 41052 ft 432 kts 149°
2026-04-29 17:53 62.33074 -18.55760 41058 ft 433 kts 149°
2026-04-29 17:53 62.28310 -18.47782 41056 ft 435 kts 149°
2026-04-29 17:54 62.23536 -18.39818 41063 ft 433 kts 150°
2026-04-29 17:54 62.18817 -18.31981 41059 ft 431 kts 150°
2026-04-29 17:55 62.14086 -18.24154 41066 ft 429 kts 150°
2026-04-29 17:55 62.09364 -18.16376 41076 ft 429 kts 150°
2026-04-29 17:56 62.04618 -18.08589 41073 ft 431 kts 150°
2026-04-29 17:56 61.99849 -18.00795 41075 ft 432 kts 150°
2026-04-29 17:57 61.95098 -17.93060 41078 ft 432 kts 150°
2026-04-29 17:57 61.90329 -17.85328 41077 ft 430 kts 150°
2026-04-29 17:58 61.85575 -17.77655 41081 ft 429 kts 150°
2026-04-29 17:58 61.80834 -17.70029 41082 ft 427 kts 151°
2026-04-29 17:59 61.76099 -17.62447 41088 ft 428 kts 151°
2026-04-29 17:59 61.72112 -17.56084 41097 ft 429 kts 151°
2026-04-29 18:00 61.67336 -17.48489 41104 ft 431 kts 151°
2026-04-29 18:00 61.62570 -17.40940 41094 ft 431 kts 151°
2026-04-29 18:01 61.57778 -17.33377 41102 ft 429 kts 151°
2026-04-29 18:01 61.52989 -17.25854 41093 ft 429 kts 151°
2026-04-29 18:02 61.48209 -17.18371 41088 ft 428 kts 151°
2026-04-29 18:02 61.43453 -17.10956 41092 ft 425 kts 151°
2026-04-29 18:03 61.38723 -17.03614 41100 ft 427 kts 151°
2026-04-29 18:03 61.33941 -16.96215 41096 ft 429 kts 151°
2026-04-29 18:04 61.29135 -16.88809 41101 ft 430 kts 151°
2026-04-29 18:04 61.24328 -16.81426 41105 ft 428 kts 151°
2026-04-29 18:05 61.19541 -16.74110 41105 ft 427 kts 151°
2026-04-29 18:05 61.14764 -16.66832 41109 ft 425 kts 151°
2026-04-29 18:06 61.09991 -16.59593 41114 ft 426 kts 151°
2026-04-29 18:06 61.05218 -16.52378 41114 ft 428 kts 151°
2026-04-29 18:07 61.00395 -16.45116 41116 ft 430 kts 151°
2026-04-29 18:07 60.95548 -16.37842 41117 ft 429 kts 151°
2026-04-29 18:08 60.90726 -16.30637 41123 ft 427 kts 151°
2026-04-29 18:08 60.85953 -16.23534 41127 ft 425 kts 151°
2026-04-29 18:09 60.81158 -16.16425 41134 ft 426 kts 151°
2026-04-29 18:09 60.76332 -16.09295 41137 ft 428 kts 151°
2026-04-29 18:10 60.71493 -16.02173 41140 ft 429 kts 151°
2026-04-29 18:10 60.66666 -15.95094 41142 ft 429 kts 151°
2026-04-29 18:11 60.61826 -15.88025 41148 ft 427 kts 151°
2026-04-29 18:11 60.57005 -15.81009 41157 ft 425 kts 151°
2026-04-29 18:12 60.52191 -15.74032 41159 ft 424 kts 151°
2026-04-29 18:12 60.47363 -15.67059 41163 ft 426 kts 150°
2026-04-29 18:13 60.42514 -15.60081 41166 ft 428 kts 150°
2026-04-29 18:13 60.37648 -15.53106 41172 ft 429 kts 150°
2026-04-29 18:14 60.32780 -15.46151 41175 ft 428 kts 150°
2026-04-29 18:14 60.27922 -15.39240 41181 ft 426 kts 150°
2026-04-29 18:15 60.23115 -15.32424 41186 ft 424 kts 150°
2026-04-29 18:15 60.18270 -15.25584 41190 ft 426 kts 150°
2026-04-29 18:16 60.13415 -15.18750 41193 ft 428 kts 150°
2026-04-29 18:16 60.08524 -15.11893 41196 ft 429 kts 150°
2026-04-29 18:17 60.03615 -15.05035 41199 ft 429 kts 150°
2026-04-29 18:17 59.98849 -14.97842 41213 ft 433 kts 142°
2026-04-29 18:18 59.94490 -14.89663 41211 ft 432 kts 142°
2026-04-29 18:18 59.90099 -14.81489 41217 ft 431 kts 142°
2026-04-29 18:19 59.85711 -14.73323 41219 ft 433 kts 142°
2026-04-29 18:19 59.81287 -14.65135 41223 ft 435 kts 142°
2026-04-29 18:20 59.76845 -14.56939 41229 ft 436 kts 142°
2026-04-29 18:20 59.72401 -14.48770 41231 ft 435 kts 142°
2026-04-29 18:21 59.67965 -14.40650 41230 ft 433 kts 142°
2026-04-29 18:21 59.63569 -14.32632 41239 ft 431 kts 142°
2026-04-29 18:22 59.59145 -14.24595 41250 ft 432 kts 142°
2026-04-29 18:22 59.54706 -14.16559 41247 ft 434 kts 142°
2026-04-29 18:23 59.50250 -14.08523 41252 ft 435 kts 142°
2026-04-29 18:23 59.45776 -14.00483 41255 ft 436 kts 142°
2026-04-29 18:24 59.41301 -13.92472 41255 ft 434 kts 142°
2026-04-29 18:24 59.36840 -13.84516 41261 ft 432 kts 142°
2026-04-29 18:25 59.32426 -13.76673 41265 ft 431 kts 142°
2026-04-29 18:25 59.27975 -13.68794 41269 ft 432 kts 142°
2026-04-29 18:26 59.23499 -13.60901 41269 ft 433 kts 142°
2026-04-29 18:26 59.19012 -13.53016 41272 ft 435 kts 142°
2026-04-29 18:27 59.14505 -13.45124 41275 ft 435 kts 142°
2026-04-29 18:27 59.10007 -13.37277 41280 ft 433 kts 142°
2026-04-29 18:28 59.05523 -13.29485 41278 ft 431 kts 142°
2026-04-29 18:28 59.01056 -13.21748 41281 ft 429 kts 142°
2026-04-29 18:29 58.96610 -13.14080 41284 ft 431 kts 142°
2026-04-29 18:29 58.92119 -13.06359 41289 ft 432 kts 142°
2026-04-29 18:30 58.87603 -12.98621 41297 ft 434 kts 142°
2026-04-29 18:30 58.83089 -12.90918 41290 ft 432 kts 142°
2026-04-29 18:31 58.78585 -12.83258 41295 ft 430 kts 142°
2026-04-29 18:31 58.74100 -12.75658 41296 ft 429 kts 142°
2026-04-29 18:32 58.69646 -12.68139 41308 ft 428 kts 142°
2026-04-29 18:32 58.62894 -12.56788 41304 ft 431 kts 142°
2026-04-29 18:33 58.58372 -12.49221 41303 ft 432 kts 142°
2026-04-29 18:33 58.53836 -12.41656 41308 ft 431 kts 142°
2026-04-29 18:34 58.50080 -12.35413 41312 ft 430 kts 142°
2026-04-29 18:34 58.44806 -12.26680 41311 ft 428 kts 142°
2026-04-29 18:35 58.40336 -12.19303 41316 ft 427 kts 142°
2026-04-29 18:35 58.35829 -12.11895 41316 ft 428 kts 142°
2026-04-29 18:36 58.31312 -12.04493 41316 ft 429 kts 142°
2026-04-29 18:36 58.26777 -11.97088 41320 ft 430 kts 142°
2026-04-29 18:37 58.22234 -11.89697 41318 ft 430 kts 142°
2026-04-29 18:37 58.17702 -11.82348 41317 ft 428 kts 142°
2026-04-29 18:38 58.13186 -11.75053 41321 ft 426 kts 142°
2026-04-29 18:38 58.08710 -11.67846 41322 ft 425 kts 142°
2026-04-29 18:39 58.04193 -11.60598 41326 ft 426 kts 142°
2026-04-29 18:39 57.99655 -11.53340 41327 ft 428 kts 142°
2026-04-29 18:40 57.95102 -11.46086 41329 ft 429 kts 142°